Renton, WA

1:25 AM PDT on October 18, 2017 (GMT -0700)
Renton Municipal

Weather History for KRNT - April, 2013

Change the Weather History Date:

Monday, April 15, 2013

  Actual Average Record
Temperature  
Mean Temperature 47 °F -  
Max Temperature 55 °F 57 °F 75 °F (1999)
Min Temperature 39 °F 42 °F 35 °F (2009)
Degree Days  
Heating Degree Days 18    
Moisture  
Dew Point 39 °F    
Average Humidity 81    
Maximum Humidity 100    
Minimum Humidity 47    
Precipitation  
Precipitation 0.03 in - - ()
Sea Level Pressure  
Sea Level Pressure 30.06 in    
Wind  
Wind Speed 2 mph (NNW)    
Max Wind Speed 12 mph    
Max Gust Speed -    
Visibility 10 miles    
Events Rain    
Averages and records for this station are not official NWS values.
T = Trace of Precipitation, MM = Missing Value Source: NWS Daily Summary

Daily Weather History Graph

Daily Weather History Graph

Search for Another Location

Airport or City:

Trip Planner

Search our weather history database for the weather conditions in past years. The results will help you decide how hot, cold, wet, or windy it might be!

Date:

Astronomy

Apr. 15, 2013 Rise Set
Actual Time 6:19 AM PDT 7:58 PM PDT
Civil Twilight 5:47 AM PDT 8:31 PM PDT
Nautical Twilight 5:07 AM PDT 9:10 PM PDT
Astronomical Twilight 4:25 AM PDT 9:54 PM PDT
Moon 9:38 AM PDT (4/15) 12:27 AM PDT (4/15)
Length of Visible Light 14h 43m
Length of Day
13h 39m
Waxing Crescent, 25% of the Moon is Illuminated
Apr 15
Waxing Crescent
Apr 18
First Quarter
Apr 25
Full
May 2
Last Quarter
May 9
New

Hourly Weather History & Observations

Time (PDT) Temp. Windchill Dew Point Humidity Pressure Visibility Wind Dir Wind Speed Gust Speed Precip Events Conditions
12:53 AM 42.1 °F - 39.9 °F 92% 29.98 in 10.0 mi Calm Calm - N/A   Overcast
1:53 AM 42.1 °F - 39.9 °F 92% 29.98 in 10.0 mi Calm Calm - N/A   Overcast
2:01 AM 41.0 °F 39.0 °F 39.2 °F 93% 29.96 in 10.0 mi SE 3.5 mph - N/A   Overcast
2:53 AM 41.0 °F - 39.9 °F 96% 29.98 in 10.0 mi Calm Calm - N/A   Overcast
3:53 AM 41.0 °F 39.0 °F 39.9 °F 96% 29.98 in 10.0 mi SE 3.5 mph - N/A   Overcast
4:53 AM 39.9 °F - 39.0 °F 97% 29.99 in 10.0 mi Calm Calm - N/A   Overcast
5:53 AM 39.0 °F - 39.0 °F 100% 29.99 in 9.0 mi Calm Calm - N/A   Scattered Clouds
6:53 AM 39.0 °F - 39.0 °F 100% 30.01 in 9.0 mi Calm Calm - N/A   Overcast
7:53 AM 41.0 °F - 39.0 °F 93% 30.03 in 10.0 mi Calm Calm - N/A   Overcast
8:53 AM 43.0 °F 41.3 °F 39.9 °F 89% 30.04 in 10.0 mi NW 3.5 mph - N/A   Mostly Cloudy
9:53 AM 44.1 °F - 39.0 °F 82% 30.04 in 10.0 mi Calm Calm - N/A   Overcast
10:53 AM 46.0 °F 43.9 °F 39.9 °F 79% 30.06 in 10.0 mi NW 4.6 mph - N/A   Overcast
11:53 AM 46.9 °F - 39.9 °F 77% 30.07 in 10.0 mi Calm Calm - 0.00 in   Overcast
12:53 PM 48.9 °F - 39.0 °F 69% 30.07 in 10.0 mi NNW 4.6 mph - N/A   Overcast
1:53 PM 51.1 °F - 36.0 °F 56% 30.07 in 10.0 mi NW 8.1 mph - N/A   Overcast
2:53 PM 53.6 °F - 37.4 °F 54% 30.05 in 10.0 mi NW 9.2 mph - N/A   Clear
3:53 PM 54.0 °F - 37.0 °F 53% 30.07 in 10.0 mi NW 8.1 mph - N/A   Clear
4:53 PM 55.0 °F - 36.0 °F 49% 30.08 in 10.0 mi NNW 11.5 mph - N/A   Clear
5:53 PM 54.0 °F - 34.0 °F 47% 30.10 in 10.0 mi NW 8.1 mph - N/A   Clear
6:53 PM 53.1 °F - 39.9 °F 61% 30.11 in 10.0 mi East 5.8 mph - N/A   Partly Cloudy
7:53 PM 45.0 °F 41.8 °F 41.0 °F 86% 30.15 in 10.0 mi Variable 5.8 mph - 0.03 in Rain Light Rain
8:53 PM 44.1 °F 42.5 °F 39.9 °F 85% 30.17 in 10.0 mi SSE 3.5 mph - 0.00 in   Clear
9:53 PM 43.0 °F - 42.1 °F 97% 30.19 in 10.0 mi Calm Calm - N/A   Scattered Clouds
10:53 PM 42.1 °F 40.2 °F 39.9 °F 92% 30.19 in 10.0 mi East 3.5 mph - N/A   Clear
11:53 PM 41.0 °F - 39.0 °F 93% 30.21 in 10.0 mi Calm Calm - N/A   Partly Cloudy